STARLINK-32224, 60941

Orbit data source: Space-Track

STARLINK-32224, 60941 is a payload satellite owned by SpaceX/Seattle (US) in LEO that was launched on Sat, 31 Aug 2024 UTC via an FALCON 9 launch vehicle from the Air Force Western Test Range (AFWTR). Payloads include a variety of satellites, spacecraft, and rockets equipped with specific instruments for various scientific and technological missions. These include communications satellites like Starlink; space stations such as the ISS; scientific satellites like the Hubble; Earth observation satellites from companies like Planet Labs, Umbra, and HawkEye 360; GPS; miniature CubeSats for education and research; and military/defense satellites.

Loading next visibility...
STARLINK-32224 details
Identifier
60941, 2024-155T
Orbit
LEO
Last TLE update14 hours ago
Origin
Flag of USSpaceX/Seattle (US)
ManufacturerSpaceX/Seattle
MissionOperational spacecraft
Bus & MotorSTARLINK V2M, Unknown motor
Mass730 kg wet, ~700 kg dry
Launch date (UTC)
2024-08-31 (5 months ago)
Launch vehicle
FALCON 9
Launch site
Air Force Western Test Range (AFWTR)
Object type
Payload
Rocket body
Debris
Shape & HBRUnknown
Radar Cross SectionLarge (>1 m²)

Expand to show TLE details & history

TLE from 14 hours ago
0 STARLINK-32224
1 60941U 24155T   25014.91420970  .00000234  00000-0  20052-4 0  9993
2 60941  53.1589 274.8990 0001433  94.8492 265.2673 15.30188183 22237
Epoch: 2025-01-14T21:56Z
Definitive object data (Epoch: 2025-01-14T21:56:27.718Z)
Latitude0.00005°
Longitude-168.83053°
Altitude476.231 km
Speed7.629 km/s
True Right ascension18h 19m 35s
True Declination0° 00' 00"
Sunlit
Object was in daylight at TLE epoch
Visualization TLE readout
Latitude-7.09037°
Longitude-176.87199°
Altitude477.601 km
Speed7.628 km/s
Apparent Right ascension20h 27m 36s
Apparent Declination-33° 32' 57"
Sunlit
Object is in daylight
Visualization observer readout
Local Sidereal Time12:40:56
Azimuth103.866° ESE
Elevation-39.906°
Doppler factor1
Orbital elements
Apogee altitude476.489 km
Perigee altitude474.525 km
Semi-major axis6,853.644 km
Eccentricity0.0001433
Inclination53.1589°
RAAN274.899°
Arg. of periapsis94.8492°
True anomaly265.25094°
Mean anomaly265.2673°
Eccentric anomaly265.25912°
Mean motion3.82526 °/min
BSTAR0.000020052
Orbital period94.11 mins
Loading maneuver chart data...
Loading historical data...
Loading historical data...
Loading historical data...
Loading historical data...
Loading historical data...
Loading historical data...
Loading historical data...

STARLINK-32224 Visibility forecast

Observer location: undefined°, undefined

Span
Click to sort rows by Start time (UTC) header in descending order
Start Az.
Max El. time (UTC)
Max El. Az.
Max El.
End time (UTC)
End Az.
5 mins2025-01-15 20:05:38.304Z242.384° WSW2025-01-15 20:07:38.304Z334.191° NNW43.215°2025-01-15 20:10:38.304Z45.072° ENE
5 mins2025-01-16 02:40:38.304Z308.011° NW2025-01-16 02:42:38.304Z207.639° SW44.889°2025-01-16 02:45:38.304Z133.194° SE
|